Wind_Speed
4 11 14 16 14 15 15 14 16 14 14 17 18 19 22 25 22 21 23 19 16 13 13 13 14 17 16 15 10 9 6 7 11 13 14 14 14 13 14 17 18 15 13 14 15 17 17 18 18
4 5 6 11 17 18 18 18 16 19 23 27 29 30 32 30 26 25 25 21 18 17 17 17 16 16 14 12 9 8 6 8 9 11 14 14 14 11 13 17 20 21 13 14 17 18 18 17 16
12 8 7 7 9 16 21 21 21 25 29 32 33 34 35 34 31 30 26 24 23 19 19 20 18 14 10 11 7 6 11 6 5 9 13 13 11 10 12 17 21 19 20 21 21 20 18 16 16
6 8 14 10 12 13 18 19 20 24 26 25 28 31 34 37 40 40 33 28 24 22 19 20 16 12 9 4 4 8 11 9 3 8 11 8 7 9 10 15 19 20 21 22 23 20 18 15 16
5 12 16 14 14 17 17 19 19 19 20 19 18 17 20 24 28 33 33 28 17 20 17 16 12 10 8 5 1 5 9 10 4 7 8 8 6 10 9 13 20 22 22 23 24 24 17 14 16
10 7 9 3 3 9 13 15 20 22 18 18 21 22 21 23 24 22 25 33 31 25 19 17 12 5 7 7 8 3 3 3 6 6 5 5 5 8 8 12 19 23 25 24 24 25 25 17 14
5 9 2 5 10 9 13 15 15 17 16 16 19 22 25 26 23 19 19 23 27 24 17 16 11 6 9 6 9 9 5 6 3 2 1 4 2 7 7 11 15 22 23 28 24 24 23 20 14
2 6 7 9 11 18 14 11 15 12 15 16 17 20 21 21 19 18 15 18 20 18 17 19 7 3 5 11 6 6 6 6 2 4 1 4 3 3 7 7 11 16 21 23 25 24 20 17 22
7 9 0 6 10 13 33 12 13 16 17 17 14 17 15 10 19 17 22 19 19 18 19 9 4 10 10 11 8 12 8 11 8 6 0 2 3 3 3 6 10 10 18 21 24 22 17 17 16
4 4 8 8 11 11 12 13 9 10 13 14 13 10 4 8 17 23 24 17 19 16 15 12 6 4 13 6 11 13 12 13 9 8 2 2 1 0 3 6 12 11 13 17 21 23 19 26 22
12 6 4 7 9 5 10 12 11 7 9 10 9 7 12 12 20 23 24 17 17 6 18 9 15 15 4 6 7 8 9 13 12 6 3 2 3 3 1 8 8 11 10 17 16 17 15 27 23
10 11 11 5 11 12 11 7 9 8 9 8 7 12 14 13 16 21 19 19 16 15 15 22 20 15 7 11 8 7 10 8 11 5 2 2 3 6 3 2 4 9 12 15 19 20 19 25 26
19 10 15 7 4 7 5 11 12 17 10 3 4 6 15 12 11 17 21 22 23 21 23 16 19 18 16 12 9 10 12 11 12 11 7 5 1 4 2 4 9 6 12 12 17 20 20 24 26
24 22 21 11 5 2 3 9 10 10 12 1 1 4 6 20 16 18 20 19 20 24 28 29 27 24 21 14 11 15 9 12 11 11 5 8 1 1 7 8 7 9 11 14 15 15 24 28 28
25 28 27 22 18 12 10 6 4 1 6 3 4 5 2 9 16 17 24 27 28 21 23 22 24 19 17 17 14 15 12 8 15 14 5 8 5 4 10 14 11 9 11 13 17 15 25 27 28
31 28 29 28 29 25 21 19 16 16 15 12 5 13 11 8 9 20 21 28 33 31 31 22 21 22 19 19 16 19 14 12 15 17 11 8 7 8 10 12 12 11 13 14 18 17 25 26 24
36 40 35 38 33 31 35 31 19 17 16 12 17 15 16 14 14 15 17 28 28 30 28 28 26 21 23 27 27 19 16 14 14 20 18 15 10 10 12 13 15 15 13 12 15 18 24 28 19
42 44 44 46 39 35 30 25 23 21 18 19 18 17 14 16 18 20 21 18 21 32 35 36 31 26 29 25 24 23 19 19 18 19 19 20 13 13 15 19 20 19 14 17 16 19 24 25 16
38 42 43 42 41 43 40 27 22 21 19 15 23 20 15 18 17 20 22 21 18 20 24 30 35 39 34 34 30 27 24 18 21 15 19 19 16 17 15 24 17 15 14 14 14 17 19 21 12
33 35 35 34 32 38 38 35 25 25 22 22 29 22 16 13 15 20 21 19 20 21 22 21 20 26 32 32 33 33 29 22 24 15 17 19 14 16 18 26 20 16 11 14 14 15 17 17 10
25 25 24 26 29 32 41 44 40 33 21 22 24 19 20 15 14 15 19 19 21 21 20 19 17 19 21 25 24 24 23 23 27 19 13 9 15 15 14 22 23 19 17 21 20 16 17 15 11
23 24 21 22 24 33 43 40 37 30 27 27 32 30 31 28 28 18 16 17 19 19 19 19 17 15 19 23 25 24 22 19 20 21 14 17 16 12 12 16 22 21 14 24 22 16 18 17 12
19 24 22 22 21 23 32 36 38 40 43 41 39 40 33 34 37 39 37 30 21 20 23 17 19 16 15 22 27 26 27 23 25 27 23 17 19 18 13 14 17 19 14 11 29 25 20 22 18
22 24 24 23 20 23 22 34 45 51 54 50 50 43 38 37 36 33 28 29 24 19 20 22 18 17 16 19 24 24 25 30 30 29 26 17 20 19 19 16 18 18 12 11 19 19 20 25 19
22 22 22 24 25 22 20 22 25 29 39 39 41 43 43 43 43 43 34 25 18 20 22 23 18 20 16 19 22 26 26 27 34 30 27 25 22 25 22 22 20 16 17 19 19 19 20 20 16
22 23 23 21 22 23 24 22 23 20 22 26 33 41 43 44 42 44 39 35 27 31 22 20 25 24 21 18 23 24 22 23 26 31 34 30 28 28 27 25 28 24 21 19 20 18 14 11 15
22 24 24 22 23 23 25 25 24 25 26 29 30 35 40 43 45 45 42 38 36 28 25 26 28 27 27 21 20 19 22 22 24 28 32 34 36 32 30 28 24 25 23 21 19 11 13 13 14
23 26 28 26 26 27 28 28 26 27 27 30 29 26 26 30 33 36 35 37 31 23 26 28 30 31 30 28 21 20 20 20 24 26 29 31 33 37 35 32 31 24 21 19 17 13 13 11 13
26 28 30 29 28 26 26 25 26 28 29 30 31 30 32 32 30 30 33 28 24 23 24 30 29 34 31 27 23 19 20 22 23 24 24 27 29 34 33 34 34 28 24 25 23 19 16 13 12
26 24 23 19 19 19 19 20 22 27 30 32 28 31 32 32 31 32 31 28 26 22 28 32 25 28 27 27 26 22 17 18 23 25 26 26 27 30 35 31 34 33 29 26 25 22 19 17 14
Wind_Direction
206 215 216 214 213 213 210 208 228 230 235 233 244 241 260 272 276 269 267 266 260 274 291 286 285 287 294 309 304 341 38 15 12 7 6 6 16 26 28 28 25 23 20 23 25 21 22 26 28
25 202 207 219 225 223 225 226 232 244 238 253 245 248 257 271 272 273 267 261 255 273 292 278 291 288 288 295 305 313 346 34 31 16 13 7 16 40 34 35 37 34 30 23 22 19 22 20 24
168 220 225 210 208 223 232 237 233 242 246 251 255 260 266 271 268 263 264 261 253 269 284 281 281 280 278 287 276 304 340 18 40 355 357 12 14 36 38 38 38 34 35 28 22 18 18 15 14
146 226 233 232 230 233 225 223 234 246 252 260 263 264 265 260 255 255 256 257 256 271 281 277 271 260 266 310 272 333 346 359 44 345 1 2 28 41 46 31 28 30 27 23 21 15 15 16 12
210 263 214 207 248 250 236 237 248 257 263 261 250 254 263 263 256 253 242 242 257 251 266 267 252 250 255 274 264 356 25 9 348 16 11 19 27 41 43 39 33 39 34 31 25 25 18 20 10
209 159 189 197 265 292 267 259 276 265 250 247 252 261 274 270 250 247 243 233 232 241 247 250 227 177 259 252 274 317 88 346 36 21 18 7 19 38 28 38 35 45 38 27 20 21 25 12 0
141 204 81 325 290 278 255 279 270 268 256 268 274 276 278 275 246 225 228 224 223 220 231 205 183 178 256 269 253 313 283 220 291 14 35 355 26 48 32 32 42 42 31 22 18 19 13 12 9
274 176 255 266 278 303 291 292 278 272 260 265 265 279 289 275 221 206 204 198 194 197 207 193 203 205 276 261 264 287 277 243 254 168 308 338 14 56 48 33 48 31 21 17 18 23 13 15 12
260 227 37 329 340 325 319 315 299 282 281 273 292 298 302 247 194 178 156 161 171 185 182 166 237 222 255 290 272 266 263 255 258 228 288 356 54 56 56 42 9 352 2 9 16 15 18 358 10
139 201 257 249 284 285 310 323 314 288 285 305 325 332 358 167 163 157 160 162 155 173 190 222 267 221 268 316 298 269 264 256 244 201 147 31 50 140 60 30 330 351 346 6 14 13 9 357 352
207 223 214 247 276 310 327 336 292 300 338 324 0 31 128 148 154 169 175 173 177 200 195 189 227 259 230 2 351 328 275 263 223 211 139 71 325 326 82 305 315 342 13 4 4 358 356 1 356
211 229 245 267 254 268 304 330 320 333 335 323 345 136 155 141 167 168 163 159 171 212 181 214 242 232 271 306 302 318 301 268 224 197 143 17 353 326 245 281 341 350 350 347 350 339 352 359 1
194 204 201 253 278 301 307 338 353 351 316 282 269 99 188 181 167 181 171 158 178 187 216 225 222 222 266 276 290 283 297 239 223 239 274 242 313 348 295 301 308 328 344 336 347 342 350 348 354
191 188 206 198 192 99 268 345 353 356 9 30 250 133 184 207 194 192 191 183 188 227 230 243 249 246 258 259 283 269 269 224 225 246 262 207 239 211 246 271 272 279 305 327 338 347 345 346 351
203 212 220 225 232 246 235 271 173 3 347 18 35 280 153 238 220 192 199 195 199 211 216 222 224 233 246 264 265 266 265 258 260 258 224 226 249 248 238 268 271 268 299 329 335 348 340 343 348
201 212 235 251 256 239 244 252 260 266 267 302 326 339 240 230 247 226 221 216 219 230 238 232 244 243 262 257 246 254 262 260 250 250 203 215 264 276 261 249 256 258 290 325 334 349 343 346 348
221 229 247 255 260 244 236 243 248 252 256 261 252 316 287 239 235 246 240 225 225 229 231 236 237 242 245 246 242 236 248 253 248 239 237 219 233 274 259 247 246 249 289 317 322 338 345 348 355
225 239 248 258 261 248 243 237 243 246 248 252 250 272 288 273 258 254 247 246 240 235 234 234 237 214 226 239 239 242 244 259 248 248 254 251 247 263 281 252 249 253 275 309 313 319 339 348 2
235 244 249 254 256 250 247 244 252 247 253 257 251 259 253 275 268 257 261 257 254 257 251 249 243 250 245 247 243 242 242 244 237 264 253 253 263 266 257 248 248 262 271 301 315 312 341 353 342
248 248 254 255 254 247 244 246 242 256 263 259 264 259 242 242 260 269 257 259 262 261 245 237 245 243 242 239 242 242 239 240 241 240 247 254 267 268 249 244 246 265 265 291 318 318 331 343 343
268 269 278 280 272 251 250 257 256 252 250 258 260 235 244 249 239 255 257 257 258 263 247 243 244 250 244 229 229 234 236 239 234 229 219 226 246 270 230 237 249 250 279 295 312 306 321 334 341
269 275 275 271 265 251 248 259 265 242 239 265 277 269 253 260 257 242 262 278 265 275 268 251 249 251 254 238 222 223 219 231 233 218 216 235 253 241 211 221 235 250 275 281 278 311 318 323 323
268 273 266 262 263 262 256 253 239 251 258 267 277 283 270 264 264 264 267 274 291 288 283 283 273 277 274 243 227 222 221 223 220 222 227 243 244 249 228 219 228 242 257 283 288 292 303 306 308
259 262 264 266 261 260 252 249 245 251 263 268 273 268 253 253 255 259 255 256 270 273 283 278 281 282 281 242 229 226 230 225 223 226 229 233 257 254 250 254 238 231 251 290 303 285 293 302 298
271 273 272 270 267 258 250 248 249 249 252 252 252 255 255 255 261 259 248 245 259 267 267 266 265 266 264 245 231 230 231 227 224 223 223 230 241 258 261 262 266 268 287 288 296 290 296 299 291
277 278 278 275 273 271 268 260 253 242 245 248 248 253 257 256 255 250 254 254 255 260 246 260 260 261 257 245 236 232 221 222 225 227 227 227 236 244 253 260 265 278 289 272 277 281 300 292 291
288 284 281 276 272 266 266 267 262 257 252 248 249 249 251 254 259 266 264 261 253 250 247 267 268 257 256 245 243 234 235 223 224 227 233 236 237 239 246 249 255 270 270 271 260 287 310 297 286
283 281 279 276 271 269 262 260 258 258 257 254 252 255 261 262 262 265 267 267 266 236 242 271 267 250 252 256 251 244 239 239 231 229 230 236 243 244 242 248 249 260 256 256 274 285 290 288 282
286 282 280 279 273 263 260 259 252 252 247 248 252 251 250 254 257 261 266 263 257 218 229 231 259 240 240 247 251 248 243 244 242 240 239 242 246 244 247 249 245 248 250 260 267 270 281 285 279
286 287 284 283 278 273 265 257 254 246 249 250 243 243 248 250 250 248 250 256 255 206 211 219 253 242 241 235 238 243 254 259 251 246 244 246 246 249 250 254 248 249 252 259 264 269 278 282 280
Height
10985 10987 10986 10987 10990 10992 10994 10995 10994 10996 10997 10996 10995 10995 10995 10994 10996 10997 10997 10999 11000 11000 11001 11001 11000 11000 11000 11000 10999 10998 10997 10996 10996 10994 10993 10992 10989 10987 10986 10984 10981 10978 10976 10975 10972 10970 10968 10966 10965
10987 10986 10986 10986 10987 10989 10991 10991 10993 10993 10994 10992 10993 10992 10991 10991 10992 10993 10995 10996 10997 10998 10999 10999 10999 10999 10999 10999 10999 10998 10997 10996 10996 10995 10994 10993 10991 10988 10987 10985 10983 10981 10978 10976 10974 10971 10969 10967 10966
10973 10983 10984 10983 10983 10985 10986 10987 10989 10989 10990 10988 10988 10987 10987 10987 10987 10989 10992 10993 10994 10995 10996 10997 10998 10998 10998 10998 10998 10997 10996 10996 10995 10995 10995 10994 10991 10989 10988 10987 10984 10982 10980 10978 10976 10973 10972 10970 10968
10981 10982 10983 10982 10981 10982 10983 10984 10985 10984 10985 10984 10983 10982 10981 10982 10982 10983 10987 10990 10991 10992 10994 10995 10996 10996 10997 10996 10996 10997 10996 10995 10995 10996 10996 10994 10992 10990 10989 10988 10986 10984 10982 10980 10978 10975 10972 10970 10967
10978 10978 10979 10980 10980 10980 10981 10982 10981 10981 10980 10979 10978 10977 10977 10975 10975 10976 10980 10986 10986 10988 10991 10993 10994 10995 10995 10996 10995 10996 10995 10995 10994 10995 10996 10995 10993 10992 10990 10989 10988 10985 10983 10981 10978 10975 10973 10971 10970
10977 10977 10977 10978 10978 10979 10980 10980 10979 10978 10976 10975 10973 10972 10971 10970 10969 10971 10973 10979 10984 10986 10989 10991 10992 10994 10994 10994 10995 10996 10995 10994 10994 10994 10996 10995 10994 10992 10992 10990 10990 10988 10985 10982 10980 10977 10975 10974 10973
10977 10978 10978 10979 10978 10977 10978 10978 10976 10974 10973 10971 10969 10966 10964 10961 10963 10965 10969 10972 10976 10981 10986 10988 10990 10991 10993 10994 10995 10996 10995 10994 10993 10994 10995 10995 10993 10993 10993 10992 10991 10989 10987 10984 10982 10979 10977 10975 10974
10974 10976 10976 10974 10975 10975 10972 10973 10972 10971 10968 10966 10964 10961 10958 10955 10957 10960 10965 10969 10973 10979 10984 10987 10989 10989 10991 10992 10994 10995 10995 10994 10993 10994 10995 10995 10995 10993 10993 10993 10992 10990 10988 10986 10983 10981 10978 10976 10974
10971 10972 10972 10974 10976 10975 10975 10972 10970 10967 10965 10963 10960 10956 10952 10950 10953 10958 10965 10969 10973 10978 10982 10985 10987 10988 10991 10992 10993 10993 10994 10994 10994 10994 10994 10996 10995 10993 10993 10993 10993 10992 10989 10986 10985 10983 10980 10977 10975
10970 10970 10974 10975 10975 10974 10975 10972 10967 10966 10964 10961 10957 10953 10950 10952 10955 10959 10964 10970 10974 10978 10982 10985 10986 10987 10990 10991 10992 10992 10992 10993 10994 10994 10995 10995 10994 10993 10992 10993 10995 10993 10991 10988 10987 10984 10981 10977 10973
10967 10968 10971 10970 10971 10971 10971 10972 10969 10965 10961 10960 10957 10954 10953 10956 10957 10960 10964 10969 10975 10978 10980 10982 10987 10989 10989 10990 10991 10993 10992 10992 10992 10995 10995 10994 10994 10993 10994 10994 10995 10994 10992 10989 10988 10985 10982 10979 10975
10967 10966 10968 10967 10967 10967 10968 10968 10969 10965 10961 10959 10958 10956 10958 10960 10962 10963 10967 10970 10975 10977 10981 10983 10986 10987 10987 10989 10992 10993 10992 10991 10993 10994 10995 10994 10994 10994 10994 10993 10995 10994 10993 10990 10988 10986 10983 10979 10975
10967 10965 10963 10960 10962 10966 10966 10966 10964 10962 10960 10958 10957 10957 10960 10961 10964 10966 10969 10972 10975 10978 10979 10982 10984 10985 10988 10989 10991 10991 10992 10992 10992 10993 10995 10994 10994 10993 10993 10993 10994 10995 10993 10990 10988 10985 10983 10980 10976
10964 10961 10957 10960 10960 10959 10961 10962 10962 10961 10961 10959 10957 10958 10961 10962 10964 10966 10969 10971 10974 10976 10978 10981 10983 10984 10986 10988 10989 10990 10990 10991 10992 10993 10992 10994 10994 10993 10994 10994 10993 10994 10993 10991 10989 10986 10984 10980 10975
10961 10957 10955 10954 10956 10958 10959 10961 10960 10958 10958 10959 10958 10959 10959 10962 10964 10966 10967 10970 10972 10973 10975 10977 10979 10981 10984 10985 10986 10988 10990 10989 10990 10991 10991 10993 10994 10994 10994 10993 10993 10993 10993 10991 10988 10987 10984 10980 10975
10954 10954 10954 10954 10956 10957 10955 10952 10954 10954 10956 10958 10957 10956 10958 10960 10961 10964 10965 10966 10968 10969 10971 10973 10975 10976 10979 10981 10983 10986 10987 10988 10987 10988 10989 10991 10993 10993 10992 10992 10992 10993 10993 10991 10989 10988 10986 10981 10975
10947 10946 10950 10950 10951 10951 10946 10947 10949 10951 10953 10953 10954 10955 10955 10956 10958 10960 10960 10962 10962 10964 10966 10968 10970 10972 10975 10976 10979 10981 10983 10984 10984 10986 10988 10989 10991 10992 10992 10991 10991 10992 10992 10991 10990 10989 10987 10983 10976
10943 10941 10946 10947 10945 10945 10943 10944 10944 10948 10948 10949 10951 10953 10954 10953 10953 10954 10956 10957 10958 10959 10961 10963 10966 10968 10971 10973 10975 10977 10979 10979 10981 10984 10986 10988 10991 10991 10991 10989 10991 10991 10992 10992 10991 10989 10988 10984 10980
10937 10937 10941 10943 10943 10940 10940 10939 10939 10942 10945 10947 10948 10949 10950 10951 10951 10951 10952 10954 10952 10953 10954 10955 10959 10962 10963 10967 10970 10973 10976 10978 10979 10980 10982 10984 10987 10989 10988 10986 10988 10990 10992 10992 10991 10990 10989 10986 10982
10931 10934 10937 10939 10941 10939 10936 10938 10939 10938 10942 10944 10943 10943 10944 10947 10949 10950 10951 10952 10951 10951 10951 10952 10952 10954 10956 10960 10963 10966 10971 10973 10976 10977 10979 10982 10983 10984 10986 10983 10986 10988 10991 10992 10991 10989 10989 10989 10985
10926 10928 10933 10935 10934 10938 10935 10935 10937 10938 10937 10940 10942 10940 10942 10944 10945 10949 10949 10950 10952 10952 10950 10948 10948 10950 10952 10955 10958 10961 10965 10969 10973 10976 10977 10980 10979 10980 10980 10981 10983 10987 10989 10990 10990 10989 10988 10987 10985
10922 10922 10926 10928 10932 10935 10934 10931 10932 10930 10929 10933 10933 10937 10940 10941 10943 10944 10945 10947 10950 10950 10950 10948 10945 10947 10949 10951 10954 10957 10960 10965 10969 10973 10976 10977 10977 10979 10978 10980 10981 10984 10986 10988 10988 10988 10986 10985 10984
10919 10916 10920 10921 10923 10925 10928 10928 10927 10921 10920 10926 10928 10929 10930 10935 10938 10940 10941 10941 10945 10942 10945 10943 10942 10942 10944 10946 10951 10953 10958 10962 10966 10970 10973 10975 10976 10978 10980 10979 10981 10983 10985 10986 10986 10985 10985 10984 10982
10913 10912 10914 10917 10920 10920 10921 10922 10921 10918 10913 10918 10922 10919 10921 10923 10926 10931 10935 10938 10938 10939 10940 10940 10940 10940 10942 10944 10947 10950 10955 10959 10962 10964 10969 10973 10975 10975 10976 10977 10978 10980 10981 10981 10982 10982 10982 10980 10978
10908 10909 10910 10912 10913 10916 10917 10915 10915 10913 10910 10912 10908 10907 10911 10915 10919 10921 10927 10931 10935 10933 10934 10934 10935 10939 10942 10944 10945 10947 10950 10954 10956 10960 10965 10967 10971 10972 10974 10974 10974 10975 10978 10979 10978 10979 10979 10976 10976
10905 10904 10905 10907 10907 10907 10906 10907 10908 10906 10903 10905 10904 10903 10904 10906 10910 10914 10918 10922 10926 10930 10931 10931 10931 10935 10938 10940 10943 10945 10946 10948 10951 10956 10960 10963 10965 10968 10969 10971 10971 10971 10973 10976 10976 10977 10974 10973 10975
10902 10901 10901 10902 10901 10900 10897 10897 10899 10898 10898 10898 10899 10898 10899 10902 10903 10903 10909 10913 10917 10923 10926 10927 10930 10931 10931 10935 10939 10939 10942 10944 10947 10952 10956 10959 10960 10961 10964 10967 10968 10969 10970 10972 10973 10973 10971 10971 10971
10898 10896 10895 10896 10895 10892 10890 10889 10891 10890 10890 10890 10894 10895 10892 10892 10893 10895 10899 10902 10909 10915 10917 10918 10922 10925 10927 10928 10931 10934 10935 10938 10941 10944 10948 10953 10956 10958 10959 10962 10964 10965 10965 10968 10969 10969 10969 10969 10969
10892 10890 10887 10888 10887 10885 10881 10881 10883 10882 10881 10884 10886 10889 10887 10888 10890 10891 10891 10893 10896 10901 10904 10907 10909 10912 10917 10920 10923 10927 10930 10932 10936 10940 10942 10945 10949 10952 10956 10957 10958 10960 10961 10962 10964 10965 10966 10965 10966
10885 10883 10881 10881 10878 10877 10876 10875 10874 10874 10874 10877 10881 10880 10881 10882 10882 10882 10884 10887 10889 10893 10891 10892 10900 10907 10911 10914 10916 10918 10923 10926 10929 10931 10934 10937 10940 10944 10948 10951 10955 10955 10956 10958 10959 10960 10961 10962 10962